SBI121 UUDD-UUDL

Flight info

Callsign SBI121
Flight time 0h 42m
Altitude 21000
Route RILPO4Q RILPO T753 RANTO RANTO2N
Aircraft A321/M-SDE3FGHIRWY/LB1

Departure

Time 2026-04-21 17:43
Airport Domodedovo International Airport (UUDD)

Arrival

Time 2026-04-21 18:25
Airport Golden Ring Yaroslavl International Airport (UUDL)
Time Latitude Longitude Altitude Speed Heading
2026-04-21 17:32 55.41137 37.89630 578 ft 0 kts 55°
2026-04-21 17:36 55.41144 37.89650 578 ft 5 kts 62°
2026-04-21 17:37 55.41123 37.89732 577 ft 12 kts 128°
2026-04-21 17:37 55.41038 37.89841 578 ft 19 kts 143°
2026-04-21 17:37 55.40965 37.89931 570 ft 19 kts 146°
2026-04-21 17:37 55.40899 37.89851 576 ft 12 kts 236°
2026-04-21 17:38 55.40841 37.89703 568 ft 17 kts 234°
2026-04-21 17:38 55.40753 37.89567 569 ft 16 kts 226°
2026-04-21 17:38 55.40685 37.89398 573 ft 15 kts 233°
2026-04-21 17:38 55.40600 37.89390 567 ft 14 kts 143°
2026-04-21 17:39 55.40511 37.89502 568 ft 18 kts 146°
2026-04-21 17:39 55.40393 37.89638 565 ft 22 kts 145°
2026-04-21 17:39 55.40255 37.89806 566 ft 25 kts 145°
2026-04-21 17:39 55.40110 37.89978 560 ft 25 kts 146°
2026-04-21 17:40 55.39966 37.90155 557 ft 26 kts 145°
2026-04-21 17:40 55.39818 37.90333 549 ft 26 kts 146°
2026-04-21 17:40 55.39687 37.90488 546 ft 20 kts 146°
2026-04-21 17:40 55.39596 37.90522 544 ft 11 kts 220°
2026-04-21 17:41 55.39555 37.90414 544 ft 11 kts 243°
2026-04-21 17:41 55.39559 37.90289 546 ft 10 kts 304°
2026-04-21 17:41 55.39570 37.90272 543 ft 0 kts 322°
2026-04-21 17:42 55.39665 37.90152 545 ft 47 kts 324°
2026-04-21 17:43 55.40134 37.89594 565 ft 112 kts 326°
2026-04-21 17:43 55.40929 37.88635 579 ft 162 kts 326°
2026-04-21 17:43 55.41901 37.87474 1078 ft 169 kts 327°
2026-04-21 17:43 55.42753 37.86065 1871 ft 169 kts 313°
2026-04-21 17:44 55.43503 37.84465 2441 ft 173 kts 316°
2026-04-21 17:44 55.44340 37.82780 2686 ft 192 kts 316°
2026-04-21 17:44 55.45248 37.80966 3125 ft 202 kts 316°
2026-04-21 17:44 55.46187 37.79080 3750 ft 206 kts 316°
2026-04-21 17:45 55.47326 37.77557 3996 ft 212 kts 342°
2026-04-21 17:45 55.48772 37.76645 4029 ft 225 kts 344°
2026-04-21 17:45 55.50256 37.75726 4037 ft 228 kts 343°
2026-04-21 17:45 55.51801 37.75003 4668 ft 229 kts 357°
2026-04-21 17:46 55.53384 37.75184 5387 ft 234 kts 15°
2026-04-21 17:46 55.54920 37.76376 5854 ft 248 kts 32°
2026-04-21 17:46 55.56421 37.77966 6578 ft 253 kts 31°
2026-04-21 17:46 55.57946 37.79548 7312 ft 256 kts 30°
2026-04-21 17:47 55.59494 37.81136 8072 ft 258 kts 30°
2026-04-21 17:47 55.61034 37.82714 8831 ft 260 kts 30°
2026-04-21 17:47 55.62577 37.84425 9595 ft 263 kts 39°
2026-04-21 17:47 55.63750 37.86906 10267 ft 267 kts 60°
2026-04-21 17:48 55.64209 37.88953 10684 ft 273 kts 74°
2026-04-21 17:48 55.64183 37.93504 11519 ft 286 kts 99°
2026-04-21 17:48 55.63731 37.96954 12173 ft 289 kts 99°
2026-04-21 17:48 55.63279 38.00434 12844 ft 292 kts 99°
2026-04-21 17:49 55.62823 38.03947 13512 ft 294 kts 99°
2026-04-21 17:49 55.62362 38.07502 14085 ft 299 kts 99°
2026-04-21 17:49 55.61888 38.11201 14251 ft 317 kts 99°
2026-04-21 17:49 55.61396 38.15057 14677 ft 324 kts 99°
2026-04-21 17:50 55.60896 38.18972 15206 ft 329 kts 99°
2026-04-21 17:50 55.60393 38.22944 15748 ft 333 kts 99°
2026-04-21 17:50 55.59885 38.26960 16293 ft 337 kts 99°
2026-04-21 17:50 55.59372 38.30977 16828 ft 340 kts 99°
2026-04-21 17:51 55.58876 38.35093 17363 ft 343 kts 94°
2026-04-21 17:51 55.58915 38.39275 17870 ft 341 kts 76°
2026-04-21 17:51 55.59699 38.43227 18355 ft 340 kts 58°
2026-04-21 17:51 55.61130 38.46537 18786 ft 339 kts 41°
2026-04-21 17:52 55.63057 38.48894 19258 ft 339 kts 24°
2026-04-21 17:52 55.65268 38.50417 19731 ft 341 kts 19°
2026-04-21 17:52 55.67474 38.51837 20197 ft 343 kts 16°
2026-04-21 17:52 55.69820 38.52675 20652 ft 345 kts
2026-04-21 17:53 55.71416 38.52752 20826 ft 347 kts 357°
2026-04-21 17:53 55.73837 38.52098 20885 ft 359 kts 345°
2026-04-21 17:53 55.76222 38.50445 20883 ft 374 kts 333°
2026-04-21 17:53 55.78410 38.47788 20883 ft 389 kts 320°
2026-04-21 17:54 55.80252 38.44177 20890 ft 404 kts 308°
2026-04-21 17:54 55.81898 38.40044 20894 ft 414 kts 307°
2026-04-21 17:54 55.83572 38.35851 20894 ft 417 kts 308°
2026-04-21 17:54 55.85292 38.31752 20893 ft 417 kts 309°
2026-04-21 17:55 55.87075 38.27666 20877 ft 417 kts 310°
2026-04-21 17:55 55.88875 38.23603 20888 ft 417 kts 310°
2026-04-21 17:55 55.90670 38.19543 20888 ft 417 kts 310°
2026-04-21 17:55 55.92457 38.15471 20890 ft 417 kts 309°
2026-04-21 17:56 55.94237 38.11374 20893 ft 417 kts 309°
2026-04-21 17:56 55.96005 38.07272 20894 ft 417 kts 309°
2026-04-21 17:56 55.97751 38.03207 20890 ft 417 kts 310°
2026-04-21 17:56 55.99716 37.99426 20895 ft 415 kts 320°
2026-04-21 17:57 56.02010 37.96308 20893 ft 413 kts 329°
2026-04-21 17:57 56.04556 37.93938 20893 ft 411 kts 338°
2026-04-21 17:57 56.07222 37.92051 20895 ft 411 kts 339°
2026-04-21 17:57 56.09884 37.90168 20882 ft 411 kts 339°
2026-04-21 17:58 56.12587 37.88505 20881 ft 411 kts 346°
2026-04-21 17:58 56.15404 37.87636 20880 ft 410 kts 356°
2026-04-21 17:58 56.18252 37.87632 20881 ft 410 kts
2026-04-21 17:58 56.21061 37.88053 20881 ft 410 kts
2026-04-21 17:59 56.23904 37.88470 20884 ft 410 kts
2026-04-21 17:59 56.26749 37.88874 20884 ft 410 kts
2026-04-21 17:59 56.29593 37.89267 20892 ft 410 kts
2026-04-21 17:59 56.32437 37.89656 20894 ft 410 kts
2026-04-21 18:00 56.35281 37.90048 20890 ft 410 kts
2026-04-21 18:00 56.38128 37.90449 20894 ft 409 kts
2026-04-21 18:00 56.40966 37.90852 20896 ft 409 kts
2026-04-21 18:00 56.43818 37.91250 20897 ft 409 kts
2026-04-21 18:01 56.46624 37.91635 20896 ft 409 kts
2026-04-21 18:01 56.49463 37.92016 20895 ft 409 kts
2026-04-21 18:01 56.52301 37.92398 20887 ft 409 kts
2026-04-21 18:01 56.55144 37.92780 20883 ft 409 kts
2026-04-21 18:02 56.57981 37.93163 20891 ft 409 kts
2026-04-21 18:02 56.60816 37.93548 20898 ft 409 kts
2026-04-21 18:02 56.63657 37.93941 20901 ft 408 kts
2026-04-21 18:02 56.66455 37.94844 20896 ft 408 kts 15°
2026-04-21 18:03 56.69083 37.96643 20903 ft 409 kts 25°
2026-04-21 18:03 56.71524 37.99304 20897 ft 410 kts 35°
2026-04-21 18:03 56.73684 38.02725 20896 ft 411 kts 43°
2026-04-21 18:03 56.75725 38.06384 20897 ft 412 kts 43°
2026-04-21 18:04 56.77769 38.10044 20887 ft 412 kts 43°
2026-04-21 18:04 56.79824 38.13724 20898 ft 412 kts 43°
2026-04-21 18:04 56.81861 38.17382 20889 ft 412 kts 43°
2026-04-21 18:04 56.83905 38.21063 20893 ft 412 kts 43°
2026-04-21 18:05 56.85951 38.24757 20898 ft 412 kts 43°
2026-04-21 18:05 56.87965 38.28352 20896 ft 411 kts 41°
2026-04-21 18:05 56.90098 38.31887 20900 ft 411 kts 39°
2026-04-21 18:05 56.92263 38.35264 20897 ft 410 kts 38°
2026-04-21 18:06 56.94471 38.38608 20894 ft 410 kts 38°
2026-04-21 18:06 56.96665 38.41919 20896 ft 410 kts 38°
2026-04-21 18:06 56.98859 38.45267 20893 ft 410 kts 38°
2026-04-21 18:06 57.01048 38.48662 20891 ft 410 kts 39°
2026-04-21 18:07 57.03226 38.52080 20889 ft 410 kts 39°
2026-04-21 18:07 57.05379 38.55485 20888 ft 410 kts 39°
2026-04-21 18:07 57.07543 38.58924 20900 ft 410 kts 39°
2026-04-21 18:07 57.09682 38.62331 20891 ft 410 kts 39°
2026-04-21 18:08 57.11845 38.65776 20888 ft 410 kts 39°
2026-04-21 18:08 57.14008 38.69221 20889 ft 410 kts 39°
2026-04-21 18:08 57.16167 38.72660 20887 ft 410 kts 39°
2026-04-21 18:08 57.18325 38.76100 20886 ft 410 kts 39°
2026-04-21 18:09 57.20484 38.79538 20891 ft 410 kts 39°
2026-04-21 18:09 57.22642 38.82981 20887 ft 410 kts 39°
2026-04-21 18:09 57.24758 38.86362 20886 ft 402 kts 39°
2026-04-21 18:09 57.26863 38.89735 20888 ft 398 kts 39°
2026-04-21 18:10 57.28950 38.93090 20535 ft 397 kts 39°
2026-04-21 18:10 57.31041 38.96459 19056 ft 401 kts 39°
2026-04-21 18:10 57.33144 38.99852 18047 ft 395 kts 39°
2026-04-21 18:10 57.35143 39.03090 17829 ft 366 kts 39°
2026-04-21 18:11 57.37011 39.06111 17440 ft 351 kts 39°
2026-04-21 18:11 57.38865 39.09110 17026 ft 354 kts 39°
2026-04-21 18:11 57.40694 39.12067 16617 ft 352 kts 39°
2026-04-21 18:11 57.42534 39.15047 16211 ft 350 kts 39°
2026-04-21 18:12 57.44360 39.18023 15799 ft 348 kts 40°
2026-04-21 18:12 57.45993 39.21333 15384 ft 348 kts 51°
2026-04-21 18:12 57.47246 39.25188 14970 ft 349 kts 62°
2026-04-21 18:12 57.48080 39.29429 14510 ft 349 kts 73°
2026-04-21 18:13 57.48455 39.33820 14054 ft 351 kts 83°
2026-04-21 18:13 57.48445 39.38352 13580 ft 350 kts 88°
2026-04-21 18:13 57.48385 39.42857 13090 ft 348 kts 88°
2026-04-21 18:13 57.48332 39.47487 12855 ft 363 kts 88°
2026-04-21 18:14 57.48216 39.57009 11651 ft 371 kts 88°
2026-04-21 18:14 57.48150 39.61814 10715 ft 365 kts 88°
2026-04-21 18:14 57.48080 39.66384 10478 ft 347 kts 88°
2026-04-21 18:15 57.48013 39.70723 10228 ft 334 kts 88°
2026-04-21 18:15 57.47949 39.74972 9981 ft 322 kts 88°
2026-04-21 18:15 57.47888 39.79072 9780 ft 309 kts 88°
2026-04-21 18:15 57.47824 39.82970 9641 ft 295 kts 88°
2026-04-21 18:16 57.47759 39.86706 9505 ft 282 kts 88°
2026-04-21 18:16 57.47700 39.90321 9368 ft 278 kts 88°
2026-04-21 18:16 57.47644 39.93854 9232 ft 276 kts 88°
2026-04-21 18:16 57.47588 39.97415 9096 ft 275 kts 88°
2026-04-21 18:17 57.47529 40.00966 8939 ft 275 kts 88°
2026-04-21 18:17 57.47469 40.04515 8546 ft 274 kts 88°
2026-04-21 18:17 57.47406 40.08046 8120 ft 272 kts 88°
2026-04-21 18:17 57.47342 40.11551 7711 ft 270 kts 88°
2026-04-21 18:18 57.47277 40.15026 7293 ft 268 kts 88°
2026-04-21 18:18 57.47211 40.18487 6888 ft 266 kts 88°
2026-04-21 18:18 57.47182 40.21920 6474 ft 263 kts 82°
2026-04-21 18:18 57.47515 40.25195 6155 ft 257 kts 69°
2026-04-21 18:19 57.48234 40.28204 5997 ft 253 kts 60°
2026-04-21 18:19 57.49020 40.31089 5876 ft 253 kts 60°
2026-04-21 18:19 57.49806 40.34015 5181 ft 253 kts 60°
2026-04-21 18:19 57.50589 40.36942 4623 ft 249 kts 60°
2026-04-21 18:20 57.51360 40.39831 4149 ft 249 kts 60°
2026-04-21 18:20 57.52126 40.42701 3730 ft 247 kts 60°
2026-04-21 18:20 57.52923 40.45524 3312 ft 243 kts 52°
2026-04-21 18:20 57.54157 40.47560 2896 ft 237 kts 26°
2026-04-21 18:21 57.55740 40.48282 2499 ft 236 kts
2026-04-21 18:21 57.57285 40.47594 2369 ft 227 kts 338°
2026-04-21 18:21 57.58664 40.46314 2295 ft 218 kts 337°
2026-04-21 18:21 57.60014 40.45051 2220 ft 217 kts 337°
2026-04-21 18:22 57.61355 40.43787 2100 ft 211 kts 335°
2026-04-21 18:22 57.62337 40.41881 1994 ft 206 kts 296°
2026-04-21 18:22 57.62315 40.39300 1996 ft 203 kts 252°
2026-04-21 18:22 57.61736 40.36992 2006 ft 187 kts 248°
2026-04-21 18:23 57.61170 40.34867 1990 ft 180 kts 248°
2026-04-21 18:23 57.60629 40.32837 1980 ft 170 kts 248°
2026-04-21 18:23 57.60119 40.30922 1863 ft 165 kts 248°
2026-04-21 18:23 57.59613 40.29021 1678 ft 162 kts 248°
2026-04-21 18:24 57.59114 40.27151 1466 ft 160 kts 248°
2026-04-21 18:24 57.58622 40.25313 1244 ft 156 kts 246°
2026-04-21 18:24 57.58145 40.23530 1055 ft 151 kts 246°
2026-04-21 18:24 57.57679 40.21782 815 ft 149 kts 244°
2026-04-21 18:25 57.57225 40.20073 605 ft 146 kts 244°
2026-04-21 18:25 57.56778 40.18395 400 ft 143 kts 243°
2026-04-21 18:25 57.56339 40.16764 306 ft 133 kts 243°
2026-04-21 18:25 57.56055 40.15706 303 ft 49 kts 244°
2026-04-21 18:26 57.55974 40.15331 302 ft 15 kts 255°
2026-04-21 18:26 57.55948 40.15305 302 ft 3 kts 142°
2026-04-21 18:26 57.55971 40.15397 303 ft 14 kts 64°
2026-04-21 18:26 57.56014 40.15563 304 ft 14 kts 64°
2026-04-21 18:27 57.56056 40.15716 303 ft 12 kts 63°
2026-04-21 18:27 57.56099 40.15870 305 ft 18 kts 62°
2026-04-21 18:27 57.56165 40.16115 306 ft 22 kts 64°
2026-04-21 18:27 57.56237 40.16378 304 ft 25 kts 63°
2026-04-21 18:28 57.56315 40.16669 305 ft 22 kts 63°
2026-04-21 18:28 57.56381 40.16915 305 ft 21 kts 63°
2026-04-21 18:28 57.56446 40.17151 306 ft 20 kts 63°
2026-04-21 18:28 57.56509 40.17386 304 ft 20 kts 64°
2026-04-21 18:29 57.56543 40.17593 302 ft 12 kts 111°
2026-04-21 18:29 57.56456 40.17671 299 ft 14 kts 174°
2026-04-21 18:29 57.56407 40.17569 299 ft 11 kts 245°
2026-04-21 18:29 57.56373 40.17451 299 ft 10 kts 233°
2026-04-21 18:30 57.56331 40.17396 297 ft 7 kts 165°
2026-04-21 18:30 57.56322 40.17467 299 ft 5 kts 72°
2026-04-21 18:30 57.56346 40.17494 298 ft 2 kts 20°
2026-04-21 18:30 57.56346 40.17495 298 ft 0 kts 19°